This is the latest recevied weather packets stored in our database for station/object WS2Z. If no packets are shown the sender has not sent any weather packets the latest 10 day(s).
| Time | Temp. | Humidity | Pressure | Rain* | Wind** | Luminosity | Snow |
|---|---|---|---|---|---|---|---|
| 1788137337 | 77° F | 97% | 763.1 mmHg | 0 in | - | 0 W/m² | - |
| 1788137034 | 77° F | 97% | 762.9 mmHg | 0 in | - | 0 W/m² | - |
| 1788136729 | 77° F | 97% | 762.8 mmHg | 0 in | - | 0 W/m² | - |
| 1788136426 | 77° F | 97% | 763 mmHg | 0 in | - | 0 W/m² | - |
| 1788136124 | 77° F | 97% | 762.9 mmHg | 0 in | - | 0 W/m² | - |
| 1788135823 | 77° F | 97% | 763 mmHg | 0 in | - | 0 W/m² | - |
| 1788135520 | 77° F | 97% | 762.7 mmHg | 0 in | - | 0 W/m² | - |
| 1788135219 | 77° F | 97% | 762.8 mmHg | 0 in | - | 0 W/m² | - |
| 1788134917 | 77° F | 97% | 762.7 mmHg | 0 in | - | 0 W/m² | - |
| 1788134612 | 77° F | 97% | 762.7 mmHg | 0 in | - | 0 W/m² | - |
| 1788134310 | 77° F | 97% | 762.6 mmHg | 0 in | - | 0 W/m² | - |
| 1788134005 | 77° F | 97% | 762.5 mmHg | 0 in | - | 1 W/m² | - |
| 1788133701 | 77° F | 97% | 762.7 mmHg | 0 in | - | 1 W/m² | - |
| 1788133396 | 77° F | 97% | 762.6 mmHg | 0 in | - | 2 W/m² | - |
| 1788133092 | 77° F | 97% | 762.6 mmHg | 0 in | - | 4 W/m² | - |
| 1788132787 | 77° F | 97% | 762.4 mmHg | 0 in | - | 6 W/m² | - |
| 1788132483 | 77° F | 97% | 762.4 mmHg | 0 in | - | 9 W/m² | - |
| 1788132178 | 77° F | 97% | 762.4 mmHg | 0 in | - | 12 W/m² | - |
| 1788131875 | 77° F | 97% | 762.4 mmHg | 0 in | - | 15 W/m² | - |
| 1788131574 | 77° F | 97% | 762.2 mmHg | 0 in | - | 18 W/m² | - |
| 1788131269 | 77° F | 97% | 762.1 mmHg | 0 in | - | 21 W/m² | - |
| 1788130965 | 77° F | 97% | 762.1 mmHg | 0 in | - | 25 W/m² | - |
| 1788130664 | 77° F | 97% | 762.3 mmHg | 0 in | - | 29 W/m² | - |
| 1788130359 | 77° F | 97% | 762.2 mmHg | 0 in | - | 33 W/m² | - |
| 1788130058 | 77° F | 97% | 762.3 mmHg | 0 in | - | 38 W/m² | - |
* Rain latest hour (hover to see other rain measurements)
** Current wind speed in m/s (hover to see current wind gust speed)